Overview Statistics Trail Chart Weather Telemetry Raw packets
 

This is the latest recevied weather packets stored in our database for station/object KD2SIG. If no packets are shown the sender has not sent any weather packets the latest 10 day(s).

<< 109 110 111 112 113 114 >>
Time Temp. Humidity Pressure Rain* Wind** Luminosity Snow
1787770990 26.11° C 61% 1017.7 hPa 0 mm - 626 W/m² -
1787770689 26.11° C 62% 1018 hPa 0 mm - 658 W/m² -
1787770384 26.11° C 61% 1017.9 hPa 0 mm - 240 W/m² -
1787770083 26.11° C 64% 1018.1 hPa 0 mm - 682 W/m² -
1787769777 25.56° C 61% 1017.8 hPa 0 mm - 671 W/m² -
1787769476 25.56° C 65% 1018.2 hPa 0 mm - 642 W/m² -
1787769174 25.56° C 63% 1018.3 hPa 0 mm - 653 W/m² -
1787768865 26.67° C 62% 1018 hPa 0 mm - 557 W/m² -
1787768561 25.56° C 62% 1018.2 hPa 0 mm - 651 W/m² -
1787768257 25.56° C 63% 1018.3 hPa 0 mm - 687 W/m² -
1787767953 25.56° C 62% 1018.3 hPa 0 mm - 691 W/m² -
1787767648 25.56° C 62% 1018.2 hPa 0 mm - 696 W/m² -
1787767347 26.11° C 64% 1018.3 hPa 0 mm - 721 W/m² -
1787767046 26.11° C 65% 1018.1 hPa 0 mm - 730 W/m² -
1787766745 25.56° C 64% 1018.4 hPa 0 mm - 681 W/m² -
1787766445 25° C 65% 1018.4 hPa 0 mm - 689 W/m² -
1787766139 25.56° C 64% 1018.5 hPa 0 mm - 619 W/m² -
1787765835 25.56° C 65% 1018.8 hPa 0 mm - 644 W/m² -
1787765531 25° C 68% 1018.8 hPa 0 mm - 354 W/m² -
1787765231 24.44° C 70% 1018.7 hPa 0 mm - 718 W/m² -
1787764930 25° C 65% 1018.9 hPa 0 mm - 592 W/m² -
1787764626 24.44° C 68% 1018.6 hPa 0 mm - 660 W/m² -
1787764320 25° C 66% 1018.9 hPa 0 mm - 685 W/m² -
1787764016 25° C 69% 1018.8 hPa 0 mm - 703 W/m² -
1787763712 24.44° C 70% 1018.8 hPa 0 mm - 689 W/m² -

* Rain latest hour (hover to see other rain measurements)
** Current wind speed in m/s (hover to see current wind gust speed)